This is the latest recevied weather packets stored in our database for station/object HA3KE-10. If no packets are shown the sender has not sent any weather packets the latest 10 day(s).
| Time | Temp. | Humidity | Pressure | Rain* | Wind** | Luminosity | Snow |
|---|---|---|---|---|---|---|---|
| 1777566877 | 17.78° C | 23% | 1025.5 hPa | - | - | - | - |
| 1777565977 | 18.33° C | 23% | 1025.5 hPa | - | - | - | - |
| 1777565077 | 17.78° C | 22% | 1025.5 hPa | - | - | - | - |
| 1777563276 | 18.89° C | 22% | 1025.6 hPa | - | - | - | - |
| 1777559676 | 19.44° C | 20% | 1025.7 hPa | - | - | - | - |
| 1777558776 | 20.56° C | 22% | 1025.8 hPa | - | - | - | - |
| 1777557876 | 20° C | 21% | 1025.8 hPa | - | - | - | - |
| 1777556075 | 20.56° C | 23% | 1025.8 hPa | - | - | - | - |
| 1777554275 | 20° C | 22% | 1026.1 hPa | - | - | - | - |
| 1777552475 | 20° C | 23% | 1026.3 hPa | - | - | - | - |
| 1777551575 | 19.44° C | 24% | 1026.4 hPa | - | - | - | - |
| 1777547974 | 18.33° C | 25% | 1026.7 hPa | - | - | - | - |
| 1777547074 | 17.22° C | 25% | 1026.8 hPa | - | - | - | - |
| 1777546174 | 17.22° C | 28% | 1026.9 hPa | - | - | - | - |
| 1777545276 | 16.67° C | 29% | 1027.2 hPa | - | - | - | - |
| 1777544376 | 16.11° C | 28% | 1027.4 hPa | - | - | - | - |
| 1777543476 | 15.56° C | 28% | 1027.3 hPa | - | - | - | - |
| 1777542576 | 15.56° C | 28% | 1027.6 hPa | - | - | - | - |
| 1777541676 | 15° C | 29% | 1027.7 hPa | - | - | - | - |
| 1777540776 | 14.44° C | 30% | 1027.7 hPa | - | - | - | - |
| 1777539875 | 13.89° C | 33% | 1027.6 hPa | - | - | - | - |
| 1777538975 | 13.89° C | 33% | 1027.7 hPa | - | - | - | - |
| 1777538075 | 12.78° C | 36% | 1027.6 hPa | - | - | - | - |
| 1777537175 | 12.78° C | 34% | 1027.6 hPa | - | - | - | - |
| 1777536275 | 12.22° C | 34% | 1027.5 hPa | - | - | - | - |
* Rain since midnight (hover to see other rain measurements)
** Current wind speed in m/s (hover to see current wind gust speed)